E2682 Weather Reports


time (UTC)temp
C
wind
direction
speed
KPH
gust
KPH
rain 1hr
cm
rain 24hr
cm
rain mn
cm
humidity
%
barometer
mb
20260901143307 27 183 6.4 19.3 0.00 0.03 0.00 70 982.6
20260901142806 27 203 9.7 19.3 0.00 0.03 0.00 69 982.7
20260901142308 27 188 3.2 6.4 0.00 0.03 0.00 69 982.7
20260901141805 27 166 1.6 4.8 0.00 0.03 0.00 69 982.6
20260901140306 27 175 0.0 4.8 0.00 0.03 0.00 70 982.4
20260901134806 27 138 3.2 4.8 0.00 0.03 0.00 70 982.3
20260901134306 27 135 0.0 4.8 0.00 0.03 0.00 70 982.2
20260901133808 26 137 0.0 8.0 0.00 0.03 0.00 71 982.2
20260901133306 26 137 0.0 8.0 0.00 0.03 0.00 71 982.2
20260901132307 26 159 0.0 4.8 0.00 0.03 0.00 71 982.0
20260901131807 26 161 0.0 1.6 0.00 0.03 0.00 71 981.9
20260901131306 26 161 0.0 4.8 0.00 0.03 0.00 71 981.8
20260901130806 26 161 1.6 4.8 0.00 0.03 0.00 71 981.7
20260901130305 27 162 0.0 1.6 0.00 0.03 0.00 71 981.7
20260901125806 27 162 0.0 1.6 0.00 0.03 0.00 71 981.7
20260901125309 27 183 0.0 1.6 0.00 0.03 0.00 70 981.6
20260901124806 27 183 0.0 3.2 0.00 0.03 0.00 70 981.7
20260901124307 27 183 0.0 3.2 0.00 0.03 0.00 71 981.6
20260901123805 27 185 0.0 4.8 0.00 0.03 0.00 71 981.5
20260901123306 27 185 1.6 4.8 0.00 0.03 0.00 70 981.5
20260901122807 27 188 0.0 3.2 0.00 0.03 0.00 70 981.5
20260901122307 27 199 0.0 1.6 0.00 0.03 0.00 70 981.4
20260901120807 27 202 0.0 0.0 0.00 0.03 0.00 70 981.3
20260901120305 27 202 0.0 0.0 0.00 0.03 0.00 70 981.3
20260901115806 27 202 0.0 0.0 0.00 0.03 0.00 70 981.3
20260901113307 27 204 0.0 0.0 0.00 0.03 0.00 69 981.3
20260901112808 27 204 0.0 0.0 0.00 0.03 0.00 69 981.2
20260901112306 27 204 0.0 0.0 0.00 0.03 0.00 69 981.2
20260901111305 27 204 0.0 0.0 0.00 0.03 0.00 69 981.3
20260901110806 27 204 0.0 0.0 0.00 0.03 0.00 69 981.3
20260901110314 27 204 0.0 0.0 0.00 0.03 0.00 69 981.3
20260901105805 27 179 0.0 0.0 0.00 0.03 0.00 69 981.3
20260901105306 27 171 0.0 1.6 0.00 0.03 0.00 69 981.3
20260901104806 27 169 0.0 1.6 0.00 0.03 0.00 69 981.2
20260901104304 27 169 0.0 0.0 0.00 0.03 0.00 69 981.2
20260901103805 27 169 0.0 3.2 0.00 0.03 0.00 69 981.2
20260901103306 27 169 0.0 4.8 0.00 0.03 0.00 69 981.2
20260901102307 27 183 0.0 3.2 0.00 0.03 0.00 68 981.3
20260901101810 27 169 0.0 9.7 0.00 0.03 0.00 67 981.3
20260901101309 27 166 1.6 9.7 0.00 0.03 0.00 67 981.3
20260901100806 27 209 0.0 3.2 0.00 0.03 0.00 66 981.3
20260901095805 27 221 0.0 1.6 0.00 0.03 0.00 66 981.3
20260901093806 27 195 0.0 3.2 0.00 0.03 0.00 67 981.3
20260901093306 27 168 0.0 4.8 0.00 0.03 0.00 67 981.4
20260901092806 27 230 0.0 4.8 0.00 0.03 0.00 67 981.3
20260901092307 -17 264 1.6 1.6 0.00 0.03 0.00 981.4
20260901091806 27 182 0.0 1.6 0.00 0.03 0.00 67 981.4
20260901091307 27 182 0.0 3.2 0.00 0.03 0.00 67 981.4
20260901090306 27 238 0.0 4.8 0.00 0.03 0.00 67 981.5
20260901085806 27 213 0.0 4.8 0.00 0.03 0.00 67 981.4
20260901084805 27 212 0.0 1.6 0.00 0.03 0.00 67 981.3
20260901084305 27 241 0.0 3.2 0.00 0.03 0.00 67 981.4
20260901083806 27 217 0.0 6.4 0.00 0.03 0.00 67 981.4
20260901083305 27 221 0.0 6.4 0.00 0.03 0.00 67 981.4
20260901082806 27 165 1.6 4.8 0.00 0.03 0.00 67 981.3
20260901082306 27 203 0.0 4.8 0.00 0.03 0.00 67 981.3
20260901081805 27 202 0.0 6.4 0.00 0.03 0.00 66 981.4
20260901080805 27 171 0.0 4.8 0.00 0.03 0.00 66 981.2
20260901080306 27 238 0.0 3.2 0.00 0.03 0.00 66 981.1
20260901075806 27 207 0.0 3.2 0.00 0.03 0.00 66 981.1
20260901074804 27 176 0.0 8.0 0.00 0.03 0.00 67 981.1
20260901074305 27 209 1.6 11.3 0.00 0.03 0.00 66 981.2
20260901073805 27 168 1.6 11.3 0.00 0.03 0.00 65 981.2
20260901073305 27 186 3.2 9.7 0.00 0.03 0.00 65 981.3
20260901072805 27 204 1.6 6.4 0.00 0.03 0.00 66 981.3
20260901072309 27 197 0.0 4.8 0.00 0.03 0.00 66 981.4
20260901071805 27 206 0.0 3.2 0.00 0.03 0.00 68 981.3
20260901071305 27 197 1.6 6.4 0.00 0.03 0.00 67 981.4
20260901070805 27 217 1.6 6.4 0.00 0.03 0.00 66 981.4
20260901070307 27 223 3.2 6.4 0.00 0.03 0.00 67 981.3
20260901065805 27 226 3.2 6.4 0.00 0.03 0.03 68 981.3
20260901065306 27 186 3.2 8.0 0.00 0.03 0.03 68 981.2
20260901064305 27 185 1.6 9.7 0.00 0.03 0.03 67 981.2
20260901063806 27 179 3.2 9.7 0.00 0.03 0.03 67 981.2
20260901063306 27 179 3.2 9.7 0.00 0.03 0.03 67 981.1
20260901062806 27 192 4.8 9.7 0.00 0.03 0.03 66 981.1
20260901062310 27 210 4.8 11.3 0.00 0.03 0.03 65 981.1
20260901061306 28 209 3.2 8.0 0.00 0.03 0.03 63 981.3
20260901060807 28 179 3.2 8.0 0.00 0.03 0.03 62 981.2
20260901055306 28 172 3.2 17.7 0.00 0.03 0.03 59 981.3
20260901054806 28 154 8.0 17.7 0.00 0.03 0.03 59 981.3
20260901054305 28 157 6.4 17.7 0.00 0.03 0.03 59 981.4
20260901053806 28 149 1.6 17.7 0.00 0.03 0.03 59 981.4
20260901053306 27 155 3.2 14.5 0.00 0.03 0.03 60 981.5
20260901052806 27 152 0.0 14.5 0.00 0.03 0.03 62 981.5
20260901052307 27 140 6.4 19.3 0.00 0.03 0.03 63 981.7
20260901051809 27 118 4.8 27.4 0.00 0.03 0.03 64 981.8
20260901051309 27 116 12.9 30.6 0.00 0.03 0.03 64 981.7
20260901050810 26 111 14.5 30.6 0.00 0.03 0.03 65 981.9
20260901050317 26 123 19.3 29.0 0.00 0.03 0.03 66 982.0
20260901045805 26 123 17.7 37.0 0.00 0.03 0.03 67 982.1
20260901045306 26 109 25.7 37.0 0.00 0.03 0.03 67 982.3
20260901044805 27 121 25.7 35.4 0.00 0.03 0.03 66 982.4
20260901044305 27 127 14.5 30.6 0.00 0.03 0.03 64 982.3
20260901043807 27 142 19.3 30.6 0.00 0.03 0.03 64 982.3
20260901042806 27 134 14.5 37.0 0.00 0.03 0.03 65 982.4
20260901042306 27 114 16.1 37.0 0.00 0.03 0.03 65 982.5
20260901041805 27 124 20.9 30.6 0.00 0.03 0.03 65 982.5
20260901040307 27 135 6.4 27.4 0.00 0.03 0.03 64 982.6
20260901035811 27 118 19.3 32.2 0.00 0.03 0.03 64 982.4
20260901035307 27 124 16.1 32.2 0.00 0.03 0.03 64 982.5
20260901034306 27 133 19.3 33.8 0.00 0.03 0.03 65 982.4
20260901033805 27 162 20.9 33.8 0.00 0.03 0.03 66 982.4
20260901033305 26 117 11.3 29.0 0.00 0.03 0.03 67 982.3
20260901032805 26 131 12.9 29.0 0.00 0.03 0.03 68 982.2
20260901032307 26 123 20.9 32.2 0.00 0.03 0.03 70 982.1
20260901031805 26 127 17.7 32.2 0.00 0.03 0.03 70 981.9
20260901031307 26 118 22.5 33.8 0.00 0.03 0.03 71 981.9
20260901030806 26 125 17.7 33.8 0.00 0.03 0.03 71 981.8
20260901030305 26 128 20.9 32.2 0.00 0.03 0.03 71 981.7
20260901025805 26 137 22.5 35.4 0.00 0.03 0.03 69 981.7
20260901025306 27 113 19.3 35.4 0.00 0.03 0.03 68 981.6
20260901024805 27 130 4.8 22.5 0.00 0.03 0.03 68 981.5
20260901023306 27 138 14.5 29.0 0.00 0.03 0.03 68 981.2
20260901022806 26 151 9.7 29.0 0.00 0.03 0.03 69 981.2
20260901022306 26 130 3.2 32.2 0.00 0.03 0.03 71 981.1
20260901021805 26 138 14.5 32.2 0.00 0.03 0.03 70 981.0
20260901021306 26 111 14.5 27.4 0.00 0.03 0.03 71 981.1
20260901020806 26 125 12.9 27.4 0.00 0.03 0.03 71 980.9
20260901020305 27 123 11.3 27.4 0.00 0.03 0.03 70 980.8
20260901015806 27 141 9.7 24.1 0.00 0.03 0.03 70 980.5
20260901015306 26 159 4.8 25.7 0.00 0.03 0.03 71 980.4
20260901014806 26 111 11.3 33.8 0.00 0.03 0.03 71 980.6
20260901014305 27 175 14.5 33.8 0.00 0.03 0.03 70 980.7
20260901013805 27 154 17.7 29.0 0.00 0.03 0.03 70 980.6
20260901013307 27 117 9.7 30.6 0.00 0.03 0.03 69 980.5
20260901012806 27 134 17.7 30.6 0.00 0.03 0.03 68 980.3
20260901012306 27 155 6.4 17.7 0.00 0.03 0.03 67 980.1
20260901011805 28 133 6.4 19.3 0.00 0.03 0.03 67 980.0
20260901011306 28 124 9.7 19.3 0.00 0.03 0.03 66 980.0
20260901010805 29 124 3.2 14.5 0.00 0.03 0.03 64 979.9
20260901010305 29 175 0.0 0.0 0.00 0.03 0.03 64 979.9
20260901005806 28 159 0.0 1.6 0.00 0.03 0.03 65 980.0
20260901005307 28 111 0.0 1.6 0.00 0.03 0.03 67 979.9
20260901004805 28 109 0.0 1.6 0.00 0.03 0.03 68 979.8
20260901004305 28 107 0.0 0.0 0.00 0.03 0.03 69 979.6
20260901003806 27 109 0.0 0.0 0.00 0.03 0.03 70 979.6
20260901002306 26 106 0.0 17.7 0.00 0.03 0.03 73 979.6
20260901000805 26 89 8.0 20.9 0.00 0.03 0.03 71 980.0
20260831235805 26 86 6.4 16.1 0.00 0.03 0.00 70 979.8
20260831234805 27 94 3.2 16.1 0.00 0.03 0.00 72 979.8
20260831234305 27 82 1.6 6.4 0.00 0.03 0.00 70 979.9
20260831233305 27 72 1.6 6.4 0.00 0.03 0.00 72 980.1
20260831232807 27 49 0.0 1.6 0.00 0.03 0.00 71 980.0
20260831232306 27 54 0.0 1.6 0.00 0.03 0.00 70 980.1
20260831231805 27 38 0.0 1.6 0.03 0.03 0.00 71 980.0
20260831231306 27 130 0.0 0.0 0.03 0.03 0.00 71 979.6
20260831230306 27 128 0.0 0.0 0.03 0.03 0.00 73 979.5
20260831225806 27 128 0.0 1.6 0.03 0.00 0.03 74 979.2
20260831225306 27 128 0.0 3.2 0.03 0.00 0.03 74 979.4
20260831224806 26 128 0.0 3.2 0.03 0.00 0.03 74 979.7
20260831224306 26 125 0.0 11.3 0.03 0.00 0.03 75 979.9
20260831223805 26 114 3.2 11.3 0.03 0.00 0.03 79 979.8
20260831223305 26 128 1.6 4.8 0.03 0.00 0.03 79 979.6
20260831222806 26 116 0.0 14.5 0.03 0.00 0.03 80 979.7
20260831222306 26 114 0.0 14.5 0.03 0.00 0.03 80 979.8
20260831221805 26 124 0.0 11.3 0.00 0.00 0.00 81 980.1
20260831221306 26 110 3.2 11.3 0.00 0.00 0.00 79 980.4
20260831220811 27 56 3.2 9.7 0.00 0.00 0.00 73 980.7
20260831215306 28 137 0.0 3.2 0.00 0.00 0.00 62 980.6
20260831214806 28 137 0.0 3.2 0.00 0.00 0.00 62 980.4
20260831214307 28 171 0.0 16.1 0.00 0.00 0.00 63 980.3
20260831213307 29 279 3.2 33.8 0.00 0.00 0.00 71 980.3
20260831212805 30 327 11.3 48.3 0.00 0.00 0.00 64 979.8
20260831211805 33 317 11.3 30.6 0.00 0.00 0.00 52 979.4
20260831211307 36 268 14.5 25.7 0.00 0.00 0.00 42 979.3
20260831210806 37 278 0.0 4.8 0.00 0.00 0.00 42 979.0
20260831205807 37 257 0.0 8.0 0.00 0.00 0.00 42 979.1
20260831205307 37 309 0.0 9.7 0.00 0.00 0.00 42 979.1
20260831204805 37 309 3.2 9.7 0.00 0.00 0.00 42 979.2
20260831204306 37 152 0.0 0.0 0.00 0.00 0.00 43 979.3
20260831203807 36 152 0.0 1.6 0.00 0.00 0.00 43 979.4
20260831203308 36 151 0.0 4.8 0.00 0.00 0.00 44 979.5
20260831202306 36 69 1.6 4.8 0.00 0.00 0.00 45 979.7
20260831201309 36 337 0.0 1.6 0.00 0.00 0.00 45 979.9
20260831200308 36 316 0.0 0.0 0.00 0.00 0.00 47 980.3
20260831195807 36 316 0.0 0.0 0.00 0.00 0.00 46 980.3
20260831195307 35 316 0.0 1.6 0.00 0.00 0.00 47 980.4
20260831194807 35 316 0.0 1.6 0.00 0.00 0.00 48 980.4
20260831194307 35 266 0.0 1.6 0.00 0.00 0.00 49 980.5
20260831193807 35 266 0.0 1.6 0.00 0.00 0.00 49 980.6
20260831193307 35 265 0.0 0.0 0.00 0.00 0.00 51 980.7
20260831192306 34 265 1.6 4.8 0.00 0.00 0.00 51 980.9
20260831191806 34 250 0.0 8.0 0.00 0.00 0.00 51 981.1
20260831191307 35 326 4.8 8.0 0.00 0.00 0.00 51 981.0
20260831190806 35 313 1.6 6.4 0.00 0.00 0.00 51 981.1
20260831185807 34 276 0.0 0.0 0.00 0.00 0.00 52 981.2
20260831185306 34 278 0.0 0.0 0.00 0.00 0.00 53 981.2
20260831184307 34 278 0.0 1.6 0.00 0.00 0.00 54 981.3
20260831183306 34 305 0.0 9.7 0.00 0.00 0.00 54 981.3
20260831182306 33 238 0.0 3.2 0.00 0.00 0.00 55 981.5
20260831181303 33 159 0.0 1.6 0.00 0.00 0.00 55 981.6
20260831180803 33 165 0.0 1.6 0.00 0.00 0.00 55 981.6
20260831180303 33 241 0.0 6.4 0.00 0.00 0.00 55 981.6
20260831175803 33 248 0.0 6.4 0.00 0.00 0.00 55 981.7
20260831175306 33 234 0.0 0.0 0.00 0.00 0.00 54 981.6
20260831174303 33 173 0.0 6.4 0.00 0.00 0.00 56 981.6
20260831173803 33 199 0.0 1.6 0.00 0.00 0.00 54 981.7
20260831173303 33 264 0.0 0.0 0.00 0.00 0.00 55 981.6
20260831172802 33 264 0.0 0.0 0.00 0.00 0.00 54 981.7
20260831172306 32 264 0.0 0.0 0.00 0.00 0.00 55 981.7
20260831171804 32 264 0.0 1.6 0.00 0.00 0.00 57 981.8
20260831171302 32 264 0.0 1.6 0.00 0.00 0.00 60 981.7
20260831170803 32 262 0.0 6.4 0.00 0.00 0.00 61 981.7
20260831170307 32 262 0.0 6.4 0.00 0.00 0.00 62 981.6
20260831165803 32 155 0.0 4.8 0.00 0.00 0.00 62 981.5
20260831165305 32 238 0.0 1.6 0.00 0.00 0.00 64 981.7
20260831164303 31 283 0.0 0.0 0.00 0.00 0.00 67 981.8
20260831163804 31 250 0.0 0.0 0.00 0.00 0.00 68 981.8
20260831162802 31 250 0.0 0.0 0.00 0.00 0.00 69 981.9
20260831162307 30 275 0.0 3.2 0.00 0.00 0.00 70 981.9
20260831161807 30 295 0.0 3.2 0.00 0.00 0.00 70 982.0
20260831160803 31 264 0.0 0.0 0.00 0.00 0.00 71 982.0
20260831160303 31 282 0.0 1.6 0.00 0.00 0.00 72 982.0
20260831155815 30 292 0.0 3.2 0.00 0.00 0.00 73 982.0
20260831155317 30 288 0.0 4.8 0.00 0.00 0.00 74 982.0
20260831154802 30 292 0.0 16.1 0.00 0.00 0.00 74 982.0
20260831154303 30 298 1.6 16.1 0.00 0.00 0.00 75 982.1
20260831153803 30 231 1.6 8.0 0.00 0.00 0.00 75 982.1
20260831153315 30 259 0.0 6.4 0.00 0.00 0.00 77 982.1
20260831152802 29 227 0.0 8.0 0.00 0.00 0.00 77 982.1
20260831152306 29 262 0.0 8.0 0.00 0.00 0.00 78 982.1
20260831151804 29 285 1.6 8.0 0.00 0.00 0.00 78 982.0
20260831151304 29 300 0.0 9.7 0.00 0.00 0.00 78 982.1
20260831150803 28 261 3.2 9.7 0.00 0.00 0.00 79 982.0
20260831150303 29 265 0.0 9.7 0.00 0.00 0.00 78 981.8
20260831145802 29 261 0.0 4.8 0.00 0.00 0.00 79 981.8
20260831145306 29 274 1.6 8.0 0.00 0.00 0.00 79 981.7
20260831144805 28 248 1.6 8.0 0.00 0.00 0.00 80 981.7
20260831144303 28 275 0.0 1.6 0.00 0.00 0.00 80 981.7